TRANSIT 5B-1 DEB, 3166

Orbit data source: Space-Track

TRANSIT 5B-1 DEB, 3166 is space debris in LEO originally from a launch on Sat, 28 Sep 1963 UTC launched from the Air Force Western Test Range (AFWTR). Debris objects in space refer to the collection of defunct objects orbiting the Earth. Examples of debris include non-operational satellites, rocket bodies, and fragments generated from explosions, collisions, or faulty payload assembly.

Loading next visibility...
Identifier
3166, 1963-038H
Orbit
LEO
Country
Flag of USUS
Related business
Manufacturer
Unknown
Mission
Spacecraft
Bus & Motor
Unknown
Mass
Unknown
Launch date (UTC)
1963-09-28 (63 years ago)
Launch vehicle
Unknown
Launch site
Air Force Western Test Range (AFWTR)
Object type
Payload
Rocket body
Debris
Shape & HBR
Unknown shape, 0.2 m
Radar Cross Section
Medium (>0.1 m² and <1 m²)

Expand to show TLE details & history
Last TLE update: 16 hours ago

TLE from 16 hours ago
0 TRANSIT 5B-1 DEB
1 03166U 63038H   26207.63955941  .00000063  00000-0  92209-4 0  9990
2 03166  89.9674 332.8526 0039473 262.1033 108.7776 13.44978714596894
Epoch: 2026-07-26T15:20Z
TLE epoch observation values (Epoch: 2026-07-26T15:20:57.933Z)
Latitude
11.26075°
Longitude
158.28307°
Altitude
1,102.579 km
Speed
7.297 km/s
True Right ascension
22h 11m 26s
True Declination
11° 11' 53"
Sunlit
Object was in full shadow at epoch
Visualization orbit readout
Latitude
Unknown
Longitude
Unknown
Altitude
Unknown
Speed
Unknown
Apparent Right ascension
Unknown
Apparent Declination
Unknown
Sunlit
N/A
Visualization observer readout
Local Sidereal Time
20:28:19
Azimuth
Unknown
Elevation
Unknown
Doppler factor
Unknown
Orbital elements
Apogee altitude
1,117.318 km
Perigee altitude
1,058.377 km
Semi-major axis
7,465.984 km
Eccentricity
0.00395
Inclination
89.9674°
RAAN
332.8526°
Arg. of periapsis
262.1033°
True anomaly
109.20517°
Mean anomaly
108.7776°
Eccentric anomaly
108.99145°
Mean motion
3.36444 °/min
Orbital period
107 mins
BSTAR
0.000092209
Loading maneuver chart data...
Computing Atmospheric mass density...

Documentation

Showing up to 5 results
|